Tracking 31027 objects as of 19-Jul-2025
HD Live streaming from Space Station
objects crossing your sky now

SL-14 DEB

Track SL-14 DEB now!
10-day predictions


NORAD ID: 45287
Int'l Code: 1991-056Z
Perigee: 1,090.6 km
Apogee: 1,197.5 km
Inclination: 82.6 °
Period: 108.1 minutes
Semi major axis: 7515 km
RCS: Unknown
Launch date: August 15, 1991
Source: Commonwealth of Independent States (former USSR) (CIS)
Launch site: PLESETSK MISSILE AND SPACE COMPLEX (PKMTR)

Note: This is SATELLITE DEBRIS
Your satellite tracking list
STARLINK-30236
Track 1 satellite(s)




NASA's NSSDC Master Catalog

Two Line Element Set (TLE):
1 45287U 91056Z   25199.47221354  .00000311  00000-0  60428-3 0  9999
2 45287  82.5731 342.4403 0071077  54.2955 306.4763 13.32617977263079
Source of the keplerian elements: AFSPC